When you browse on this site, cookies collect data to enhance your experience and personalize the content and advertising you see.
Visit our Privacy Policy to learn more. By continuing to use the site, you agree to this use of cookies and data.
  • En España
  • Lista de países
  • Para 7 días
  • Temperatura del agua
  • El tiempo en el mapa
  • Informadores
  • user-avatar
    Iniciar sesión

    Tiempo cada hora Luanda

    Hoy, 23 Octubre, Miércoles

    Tiempo Temperatura Precipitaciones Viento Presión Humedad
    00:00 +27°C° 0 mm 4 mps 752 mmHg 81%
    01:00 +27°C° 0 mm 3 mps 751 mmHg 81%
    02:00 +27°C° 0 mm 3 mps 751 mmHg 81%
    03:00 +27°C° 0 mm 4 mps 751 mmHg 81%
    04:00 +27°C° 0 mm 4 mps 751 mmHg 81%
    05:00 +27°C° 0.1 mm 4 mps 752 mmHg 80%
    06:00 +27°C° 0.1 mm 4 mps 752 mmHg 79%
    07:00 +27°C° 0.1 mm 4 mps 753 mmHg 78%
    08:00 +29°C° 0 mm 3 mps 753 mmHg 71%
    09:00 +30°C° 0 mm 2 mps 752 mmHg 64%
    10:00 +31°C° 0 mm 1 mps 752 mmHg 57%
    11:00 +34°C° 0 mm 2 mps 752 mmHg 53%
    12:00 +35°C° 0 mm 4 mps 751 mmHg 48%
    13:00 +36°C° 0 mm 5 mps 751 mmHg 44%
    14:00 +35°C° 0 mm 5 mps 750 mmHg 50%
    15:00 +34°C° 0 mm 5 mps 749 mmHg 55%
    16:00 +32°C° 0 mm 6 mps 749 mmHg 61%
    17:00 +30°C° 0 mm 6 mps 749 mmHg 66%
    18:00 +29°C° 0 mm 6 mps 750 mmHg 71%
    19:00 +28°C° 0 mm 7 mps 750 mmHg 77%
    20:00 +27°C° 0 mm 6 mps 751 mmHg 77%
    21:00 +27°C° 0 mm 5 mps 751 mmHg 77%
    22:00 +27°C° 0 mm 4 mps 752 mmHg 78%
    23:00 +27°C° 0.1 mm 4 mps 752 mmHg 78%

    Mañana, 24 Octubre, Jueves

    Tiempo Temperatura Precipitaciones Viento Presión Humedad
    00:00 +27°C° 0.1 mm 3 mps 752 mmHg 77%
    01:00 +27°C° 0.1 mm 3 mps 752 mmHg 77%
    02:00 +27°C° 0.6 mm 3 mps 752 mmHg 78%
    03:00 +27°C° 0.6 mm 2 mps 752 mmHg 78%
    04:00 +27°C° 0.6 mm 2 mps 752 mmHg 79%
    05:00 +27°C° 0.2 mm 2 mps 752 mmHg 77%
    06:00 +27°C° 0.2 mm 2 mps 753 mmHg 76%
    07:00 +27°C° 0.2 mm 2 mps 753 mmHg 74%
    08:00 +28°C° 0 mm 2 mps 753 mmHg 70%
    09:00 +29°C° 0 mm 2 mps 753 mmHg 65%
    10:00 +30°C° 0 mm 2 mps 753 mmHg 60%
    11:00 +31°C° 0 mm 2 mps 753 mmHg 57%
    12:00 +33°C° 0 mm 3 mps 752 mmHg 54%
    13:00 +34°C° 0 mm 4 mps 751 mmHg 51%
    14:00 +34°C° 0 mm 4 mps 751 mmHg 54%
    15:00 +33°C° 0 mm 5 mps 750 mmHg 57%
    16:00 +32°C° 0 mm 5 mps 750 mmHg 60%
    17:00 +30°C° 0 mm 5 mps 750 mmHg 66%
    18:00 +29°C° 0 mm 4 mps 751 mmHg 72%
    19:00 +28°C° 0 mm 4 mps 752 mmHg 77%
    20:00 +27°C° 0.3 mm 4 mps 753 mmHg 78%
    21:00 +27°C° 0.3 mm 3 mps 753 mmHg 79%
    22:00 +27°C° 0.3 mm 3 mps 754 mmHg 80%
    23:00 +27°C° 0 mm 3 mps 753 mmHg 80%

    Pasado mañana, 25 Octubre, Viernes

    Tiempo Temperatura Precipitaciones Viento Presión Humedad
    00:00 +27°C° 0 mm 2 mps 753 mmHg 80%
    01:00 +27°C° 0 mm 2 mps 752 mmHg 80%
    02:00 +27°C° 0 mm 2 mps 752 mmHg 81%
    03:00 +27°C° 0 mm 2 mps 753 mmHg 81%
    04:00 +27°C° 0 mm 2 mps 753 mmHg 82%
    05:00 +27°C° 0 mm 2 mps 753 mmHg 80%
    06:00 +27°C° 0 mm 2 mps 754 mmHg 79%
    07:00 +27°C° 0 mm 2 mps 754 mmHg 78%
    08:00 +28°C° 0 mm 1 mps 754 mmHg 73%
    09:00 +29°C° 0 mm 1 mps 754 mmHg 69%
    10:00 +30°C° 0 mm 1 mps 754 mmHg 65%
    11:00 +30°C° 0 mm 2 mps 753 mmHg 63%
    12:00 +31°C° 0 mm 3 mps 752 mmHg 61%
    13:00 +33°C° 0 mm 4 mps 752 mmHg 59%
    14:00 +32°C° 0 mm 4 mps 751 mmHg 62%
    15:00 +32°C° 0 mm 5 mps 751 mmHg 64%
    16:00 +30°C° 0 mm 5 mps 751 mmHg 66%
    17:00 +29°C° 0 mm 5 mps 751 mmHg 70%
    18:00 +28°C° 0 mm 5 mps 752 mmHg 74%
    19:00 +28°C° 0 mm 4 mps 752 mmHg 78%
    20:00 +28°C° 0 mm 4 mps 753 mmHg 78%
    21:00 +27°C° 0 mm 4 mps 753 mmHg 79%
    22:00 +27°C° 0 mm 3 mps 754 mmHg 79%
    23:00 +27°C° 0 mm 3 mps 753 mmHg 80%

    26 Octubre, Sábado

    Tiempo Temperatura Precipitaciones Viento Presión Humedad
    00:00 +27°C° 0 mm 3 mps 753 mmHg 81%
    01:00 +27°C° 0 mm 3 mps 753 mmHg 81%
    02:00 +27°C° 0 mm 3 mps 753 mmHg 82%
    03:00 +26°C° 0 mm 3 mps 752 mmHg 83%
    04:00 +26°C° 0 mm 3 mps 752 mmHg 83%
    05:00 +27°C° 0 mm 3 mps 753 mmHg 82%
    06:00 +27°C° 0 mm 3 mps 753 mmHg 81%
    07:00 +27°C° 0 mm 3 mps 754 mmHg 79%
    08:00 +28°C° 0 mm 2 mps 754 mmHg 76%
    09:00 +28°C° 0 mm 2 mps 754 mmHg 73%
    10:00 +29°C° 0 mm 1 mps 755 mmHg 70%
    11:00 +29°C° 0.4 mm 2 mps 754 mmHg 70%
    12:00 +29°C° 0.4 mm 3 mps 753 mmHg 70%
    13:00 +29°C° 0.4 mm 5 mps 751 mmHg 70%
    14:00 +29°C° 0 mm 4 mps 751 mmHg 71%
    15:00 +29°C° 0 mm 3 mps 750 mmHg 71%
    16:00 +29°C° 0 mm 2 mps 750 mmHg 71%
    17:00 +28°C° 0 mm 2 mps 750 mmHg 73%
    18:00 +28°C° 0 mm 2 mps 751 mmHg 76%
    19:00 +28°C° 0 mm 1 mps 752 mmHg 78%
    20:00 +27°C° 0 mm 2 mps 752 mmHg 79%
    21:00 +27°C° 0 mm 2 mps 753 mmHg 80%
    22:00 +27°C° 0 mm 3 mps 754 mmHg 81%
    23:00 +27°C° 0 mm 3 mps 753 mmHg 83%

    27 Octubre, Domingo

    Tiempo Temperatura Precipitaciones Viento Presión Humedad
    00:00 +27°C° 0 mm 3 mps 753 mmHg 84%
    01:00 +27°C° 0 mm 3 mps 753 mmHg 85%
    02:00 +27°C° 0 mm 3 mps 753 mmHg 86%
    03:00 +26°C° 0 mm 3 mps 752 mmHg 86%
    04:00 +26°C° 0 mm 3 mps 752 mmHg 86%
    05:00 +27°C° 0.1 mm 3 mps 753 mmHg 85%
    06:00 +27°C° 0.1 mm 3 mps 753 mmHg 83%
    07:00 +27°C° 0.1 mm 3 mps 753 mmHg 82%
    08:00 +27°C° 0.1 mm 3 mps 753 mmHg 78%
    09:00 +28°C° 0.1 mm 3 mps 753 mmHg 74%
    10:00 +29°C° 0.1 mm 3 mps 754 mmHg 70%
    11:00 +29°C° 0 mm 3 mps 753 mmHg 68%
    12:00 +30°C° 0 mm 4 mps 752 mmHg 66%
    13:00 +30°C° 0 mm 4 mps 751 mmHg 64%
    14:00 +30°C° 0 mm 4 mps 751 mmHg 63%
    15:00 +30°C° 0 mm 4 mps 751 mmHg 62%
    16:00 +30°C° 0 mm 4 mps 750 mmHg 61%
    17:00 +29°C° 0 mm 4 mps 751 mmHg 67%
    18:00 +28°C° 0 mm 4 mps 751 mmHg 72%
    19:00 +27°C° 0 mm 4 mps 752 mmHg 78%
    20:00 +27°C° 0 mm 3 mps 752 mmHg 79%
    21:00 +27°C° 0 mm 3 mps 752 mmHg 81%
    22:00 +27°C° 0 mm 2 mps 753 mmHg 82%
    23:00 +26°C° 0 mm 2 mps 753 mmHg 83%

    28 Octubre, Lunes

    Tiempo Temperatura Precipitaciones Viento Presión Humedad
    00:00 +26°C° 0 mm 2 mps 752 mmHg 83%
    01:00 +26°C° 0 mm 3 mps 752 mmHg 84%
    02:00 +26°C° 0 mm 2 mps 752 mmHg 83%
    03:00 +26°C° 0 mm 2 mps 752 mmHg 82%
    04:00 +26°C° 0 mm 2 mps 752 mmHg 81%
    05:00 +27°C° 0.1 mm 2 mps 752 mmHg 79%
    06:00 +27°C° 0.1 mm 2 mps 753 mmHg 78%
    07:00 +27°C° 0.1 mm 1 mps 753 mmHg 76%
    08:00 +28°C° 0 mm 1 mps 753 mmHg 69%
    09:00 +30°C° 0 mm 1 mps 753 mmHg 62%
    10:00 +31°C° 0 mm 1 mps 753 mmHg 55%
    11:00 +32°C° 0 mm 2 mps 752 mmHg 55%
    12:00 +33°C° 0 mm 3 mps 752 mmHg 54%
    13:00 +33°C° 0 mm 5 mps 751 mmHg 54%
    14:00 +33°C° 0 mm 4 mps 750 mmHg 56%
    15:00 +32°C° 0 mm 4 mps 750 mmHg 58%
    16:00 +30°C° 0 mm 4 mps 750 mmHg 60%
    17:00 +29°C° 0 mm 4 mps 750 mmHg 65%
    18:00 +29°C° 0 mm 4 mps 750 mmHg 69%
    19:00 +28°C° 0 mm 5 mps 751 mmHg 73%
    20:00 +27°C° 0 mm 4 mps 751 mmHg 75%
    21:00 +27°C° 0 mm 4 mps 752 mmHg 76%
    22:00 +27°C° 0 mm 4 mps 752 mmHg 77%
    23:00 +27°C° 0 mm 4 mps 752 mmHg 78%

    29 Octubre, Martes

    Tiempo Temperatura Precipitaciones Viento Presión Humedad
    00:00 +27°C° 0 mm 3 mps 752 mmHg 78%
    01:00 +27°C° 0 mm 3 mps 752 mmHg 78%
    02:00 +27°C° 0.1 mm 3 mps 752 mmHg 78%
    03:00 +26°C° 0.1 mm 3 mps 752 mmHg 78%
    04:00 +26°C° 0.1 mm 3 mps 752 mmHg 78%
    05:00 +26°C° 0.1 mm 2 mps 752 mmHg 77%
    06:00 +27°C° 0.1 mm 2 mps 752 mmHg 76%
    07:00 +27°C° 0.1 mm 1 mps 752 mmHg 75%
    08:00 +28°C° 0 mm 2 mps 753 mmHg 71%
    09:00 +29°C° 0 mm 2 mps 753 mmHg 66%
    10:00 +30°C° 0 mm 2 mps 753 mmHg 61%
    11:00 +31°C° 0 mm 3 mps 752 mmHg 58%
    12:00 +31°C° 0 mm 3 mps 752 mmHg 56%
    13:00 +33°C° 0 mm 4 mps 751 mmHg 53%
    14:00 +32°C° 0 mm 4 mps 751 mmHg 56%
    15:00 +32°C° 0 mm 4 mps 750 mmHg 58%
    16:00 +30°C° 0 mm 5 mps 750 mmHg 61%
    17:00 +29°C° 0 mm 4 mps 750 mmHg 65%
    18:00 +28°C° 0 mm 4 mps 751 mmHg 69%
    19:00 +27°C° 0 mm 4 mps 751 mmHg 73%
    20:00 +27°C° 0 mm 3 mps 751 mmHg 74%
    21:00 +27°C° 0 mm 3 mps 752 mmHg 75%
    22:00 +27°C° 0 mm 2 mps 752 mmHg 76%
    23:00 +27°C° 0 mm 2 mps 752 mmHg 76%
    Mostrar más